Flag for Sweden Weather past 2 weeks in Kiruna, Sweden

Now
54 °F

Sunny.


Feels Like: 50 °F
Forecast: 47 / 57 °F
Wind: 10 mph from Southwest

Location: Kiruna Airport

Current Time: Sep 3, 2014 at 9:18:23 AM

Latest Report: Sep 3, 2014 at 8:50 AM


Visibility: 10 mi

Pressure: 29.92 "Hg

Humidity: 77%

Dew point: 46 °F

Location of KirunaLocation

Historic Weather in Kiruna — Graph

°F

Kiruna temperature yesterday

Maximum temperature yesterday: 63 °F (at 11:20 AM)
Minimum temperature yesterday: 45 °F (at 1:20 AM)
Average temperature yesterday: 54 °F

Past Weeks' High & Low Weather Summary

 TemperatureHumidityPressure
High64 °F (Aug 31, 3:20 PM)100% (Aug 19, 8:20 AM)30.15 "Hg (Aug 19, 8:20 AM)
Low36 °F (Aug 24, 1:50 AM)40% (Aug 31, 4:20 PM)29.42 "Hg (Aug 19, 7:20 AM)
Average49 °F79%29.85 "Hg
* Reported Aug 19 7:20 AM — Sep 3 7:50 AM, Kiruna, Weather by CustomWeather, © 2014

Note: Actual official high and low records may vary slightly from our data, if they occured in-between our weather recording intervals... More about our weather records

Advertising

Kiruna weather history for previous 24 hours

 ConditionsComfort  
Time TempWeatherWind HumidityBarometerVisibility
7:50 AM
Sep 3
50 °FSunny.10 mph82%29.92 "Hg10 mi
7:20 AM50 °FSunny.10 mph82%29.92 "Hg10 mi
6:50 AM50 °FSunny.10 mph82%29.92 "Hg10 mi
6:20 AM50 °FSunny.10 mph82%29.95 "Hg10 mi
5:50 AM50 °FClear.7 mph82%29.92 "Hg10 mi
5:20 AM50 °FMostly cloudy.9 mph82%29.95 "HgN/A
4:50 AM52 °FPassing clouds.8 mph77%29.95 "HgN/A
4:20 AM52 °FCool.9 mph77%29.92 "HgN/A
3:50 AM50 °FCool.8 mph82%29.95 "HgN/A
3:20 AM50 °FPassing clouds.8 mph82%29.95 "HgN/A
2:50 AM52 °FPassing clouds.6 mph77%29.95 "HgN/A
2:20 AM52 °FCool.6 mph77%29.95 "HgN/A
1:50 AM50 °FCool.6 mph82%29.95 "HgN/A
1:20 AM52 °FPassing clouds.6 mph72%29.95 "HgN/A
12:50 AM52 °FMostly cloudy.6 mph72%29.95 "HgN/A
12:20 AM52 °FPassing clouds.9 mph72%29.95 "HgN/A
11:50 PM
Sep 2
52 °FMostly cloudy.7 mph72%29.95 "HgN/A
11:20 PM54 °FPassing clouds.6 mph67%29.95 "HgN/A
10:50 PM52 °FOvercast.7 mph77%29.95 "HgN/A
10:20 PM52 °FClear.6 mph77%29.95 "Hg10 mi
9:50 PM54 °FClear.8 mph72%29.98 "Hg10 mi
9:20 PM55 °FClear.10 mph67%29.98 "Hg10 mi
8:50 PM54 °FSunny.7 mph77%29.98 "Hg10 mi
8:20 PM55 °FSunny.8 mph72%29.98 "Hg10 mi
7:50 PM55 °FSunny.8 mph72%29.98 "Hg10 mi
7:20 PM57 °FPartly sunny.9 mph67%29.98 "HgN/A
6:50 PM57 °FSunny.7 mph67%29.98 "Hg10 mi
6:20 PM59 °FSunny.9 mph63%29.98 "Hg10 mi
5:50 PM59 °FSunny.9 mph63%29.98 "Hg10 mi
5:20 PM59 °FSunny.10 mph59%29.98 "Hg10 mi
4:50 PM59 °FSunny.8 mph59%29.98 "Hg10 mi
4:20 PM59 °FSunny.10 mph55%29.98 "Hg10 mi
3:50 PM61 °FScattered clouds.12 mph52%29.98 "HgN/A
3:20 PM61 °FSunny.9 mph52%29.98 "Hg10 mi
2:50 PM61 °FSunny.12 mph48%29.98 "Hg10 mi
2:20 PM61 °FScattered clouds.14 mph52%29.98 "HgN/A
1:50 PM63 °FPassing clouds.10 mph52%29.98 "HgN/A
1:20 PM63 °FPassing clouds.10 mph52%29.98 "HgN/A
12:50 PM63 °FPassing clouds.14 mph45%29.98 "HgN/A
12:20 PM63 °FSunny.16 mph49%29.98 "Hg10 mi
11:50 AM63 °FSunny.15 mph52%29.98 "Hg10 mi
11:20 AM63 °FSunny.13 mph56%29.98 "Hg10 mi
10:50 AM59 °FSunny.10 mph63%29.98 "Hg10 mi
10:20 AM57 °FSunny.9 mph67%29.98 "Hg10 mi
9:50 AM55 °FSunny.12 mph72%29.98 "Hg10 mi
9:20 AM52 °FSunny.10 mph77%29.98 "Hg10 mi
Weather by CustomWeather, © 2014

See weather overviewHow to use our weather pages